• In Hungary
  • List of Countries
  • For 7 days
  • Water Temperature
  • Satellite Maps
  • Weather Map
  • News
  • Weather Widgets
  • user-avatar
    Login

    Hourly Weather Folkern

    Today, 21 November, Tuesday

    Time Temperature Precipitation Wind Pressure Humidity
    00:00 +5°C° 0 mm 7 mps 754 mmHg 85%
    01:00 +5°C° 0.1 mm 7 mps 753 mmHg 86%
    02:00 +5°C° 0.1 mm 7 mps 753 mmHg 86%
    03:00 +5°C° 0.1 mm 7 mps 753 mmHg 86%
    04:00 +5°C° 0 mm 7 mps 753 mmHg 86%
    05:00 +5°C° 0 mm 7 mps 753 mmHg 86%
    06:00 +5°C° 0 mm 7 mps 752 mmHg 86%
    07:00 +5°C° 0 mm 7 mps 752 mmHg 86%
    08:00 +5°C° 0 mm 7 mps 751 mmHg 86%
    09:00 +5°C° 0 mm 7 mps 751 mmHg 86%
    10:00 +5°C° 0.2 mm 7 mps 750 mmHg 87%
    11:00 +5°C° 0.2 mm 6 mps 750 mmHg 87%
    12:00 +5°C° 0.2 mm 6 mps 749 mmHg 87%
    13:00 +5°C° 1.7 mm 6 mps 748 mmHg 89%
    14:00 +5°C° 1.7 mm 6 mps 747 mmHg 90%
    15:00 +5°C° 1.7 mm 6 mps 746 mmHg 92%
    16:00 +5°C° 1.5 mm 7 mps 745 mmHg 92%
    17:00 +5°C° 1.5 mm 7 mps 744 mmHg 92%
    18:00 +5°C° 1.5 mm 7 mps 743 mmHg 92%
    19:00 +5°C° 0.2 mm 7 mps 743 mmHg 91%
    20:00 +5°C° 0.2 mm 6 mps 743 mmHg 91%
    21:00 +7°C° 0.2 mm 6 mps 742 mmHg 90%
    22:00 +7°C° 0 mm 6 mps 742 mmHg 89%
    23:00 +7°C° 0 mm 6 mps 742 mmHg 88%

    Tomorrow, 22 November, Wednesday

    Time Temperature Precipitation Wind Pressure Humidity
    00:00 +7°C° 0 mm 5 mps 742 mmHg 87%
    01:00 +7°C° 0.1 mm 5 mps 742 mmHg 87%
    02:00 +7°C° 0.1 mm 5 mps 742 mmHg 86%
    03:00 +7°C° 0.1 mm 5 mps 742 mmHg 86%
    04:00 +7°C° 0.1 mm 5 mps 741 mmHg 87%
    05:00 +7°C° 0.1 mm 6 mps 741 mmHg 87%
    06:00 +5°C° 0.1 mm 7 mps 740 mmHg 88%
    07:00 +5°C° 0 mm 6 mps 740 mmHg 88%
    08:00 +6°C° 0 mm 5 mps 740 mmHg 88%
    09:00 +6°C° 0 mm 5 mps 739 mmHg 89%
    10:00 +6°C° 0 mm 5 mps 739 mmHg 88%
    11:00 +6°C° 0 mm 5 mps 738 mmHg 87%
    12:00 +6°C° 0 mm 4 mps 738 mmHg 86%
    13:00 +6°C° 0.2 mm 5 mps 737 mmHg 86%
    14:00 +5°C° 0.2 mm 6 mps 736 mmHg 87%
    15:00 +5°C° 0.2 mm 7 mps 735 mmHg 87%
    16:00 +5°C° 0.5 mm 7 mps 735 mmHg 86%
    17:00 +6°C° 0.5 mm 7 mps 734 mmHg 84%
    18:00 +6°C° 0.5 mm 7 mps 734 mmHg 83%
    19:00 +6°C° 0.4 mm 8 mps 733 mmHg 83%
    20:00 +6°C° 0.4 mm 9 mps 733 mmHg 83%
    21:00 +5°C° 0.4 mm 10 mps 733 mmHg 83%
    22:00 +4°C° 0.2 mm 11 mps 732 mmHg 82%
    23:00 +4°C° 0.2 mm 12 mps 732 mmHg 80%

    Day after tomorrow, 23 November, Thursday

    Time Temperature Precipitation Wind Pressure Humidity
    00:00 +4°C° 0.2 mm 13 mps 731 mmHg 78%
    01:00 +4°C° 0.8 mm 14 mps 731 mmHg 78%
    02:00 +4°C° 0.8 mm 14 mps 730 mmHg 78%
    03:00 +4°C° 0.8 mm 14 mps 730 mmHg 78%
    04:00 +4°C° 2.5 mm 14 mps 730 mmHg 81%
    05:00 +3°C° 2.5 mm 14 mps 730 mmHg 83%
    06:00 +3°C° 2.5 mm 13 mps 730 mmHg 86%
    07:00 +3°C° 0.9 mm 12 mps 731 mmHg 78%
    08:00 +3°C° 0.9 mm 11 mps 731 mmHg 71%
    09:00 +3°C° 0.9 mm 11 mps 732 mmHg 64%
    10:00 +4°C° 0.4 mm 11 mps 732 mmHg 64%
    11:00 +4°C° 0.4 mm 11 mps 733 mmHg 64%
    12:00 +4°C° 0.4 mm 11 mps 733 mmHg 64%
    13:00 +4°C° 1.1 mm 11 mps 733 mmHg 67%
    14:00 +4°C° 1.1 mm 11 mps 732 mmHg 70%
    15:00 +4°C° 1.1 mm 11 mps 732 mmHg 74%
    16:00 +5°C° 1.5 mm 10 mps 732 mmHg 76%
    17:00 +5°C° 1.5 mm 9 mps 731 mmHg 78%
    18:00 +5°C° 1.5 mm 8 mps 731 mmHg 80%
    19:00 +5°C° 0.6 mm 9 mps 732 mmHg 81%
    20:00 +4°C° 0.6 mm 11 mps 732 mmHg 81%
    21:00 +4°C° 0.6 mm 12 mps 733 mmHg 81%
    22:00 +4°C° 0.3 mm 14 mps 735 mmHg 81%
    23:00 +4°C° 0.3 mm 15 mps 736 mmHg 81%

    24 November, Friday

    Time Temperature Precipitation Wind Pressure Humidity
    00:00 +2°C° 0.3 mm 17 mps 738 mmHg 81%
    01:00 +2°C° 0.3 mm 15 mps 739 mmHg 77%
    02:00 +3°C° 0.3 mm 14 mps 741 mmHg 72%
    03:00 +3°C° 0.3 mm 12 mps 743 mmHg 68%
    04:00 +3°C° 0.1 mm 11 mps 744 mmHg 66%
    05:00 +2°C° 0.1 mm 10 mps 745 mmHg 64%
    06:00 +2°C° 0.1 mm 9 mps 746 mmHg 62%
    07:00 +2°C° 0.2 mm 8 mps 747 mmHg 62%
    08:00 +2°C° 0.2 mm 8 mps 748 mmHg 62%
    09:00 +2°C° 0.2 mm 8 mps 749 mmHg 62%
    10:00 +3°C° 0.1 mm 7 mps 749 mmHg 61%
    11:00 +3°C° 0.1 mm 7 mps 750 mmHg 61%
    12:00 +4°C° 0.1 mm 7 mps 750 mmHg 61%
    13:00 +3°C° 0.1 mm 7 mps 751 mmHg 61%
    14:00 +3°C° 0.1 mm 7 mps 751 mmHg 61%
    15:00 +3°C° 0.1 mm 6 mps 751 mmHg 61%
    16:00 +3°C° 0.1 mm 6 mps 751 mmHg 61%
    17:00 +3°C° 0.1 mm 6 mps 752 mmHg 62%
    18:00 +3°C° 0.1 mm 6 mps 752 mmHg 62%
    19:00 +3°C° 0.2 mm 6 mps 752 mmHg 61%
    20:00 +3°C° 0.2 mm 6 mps 753 mmHg 61%
    21:00 +3°C° 0.2 mm 6 mps 753 mmHg 60%
    22:00 +3°C° 0.1 mm 6 mps 753 mmHg 60%
    23:00 +3°C° 0.1 mm 6 mps 753 mmHg 60%

    25 November, Saturday

    Time Temperature Precipitation Wind Pressure Humidity
    00:00 +3°C° 0.1 mm 6 mps 753 mmHg 60%
    01:00 +3°C° 0.1 mm 6 mps 753 mmHg 61%
    02:00 +2°C° 0.1 mm 6 mps 753 mmHg 61%
    03:00 +2°C° 0.1 mm 6 mps 753 mmHg 62%
    04:00 +2°C° 0.3 mm 7 mps 753 mmHg 62%
    05:00 +1°C° 0.3 mm 8 mps 753 mmHg 63%
    06:00 +1°C° 0.3 mm 8 mps 753 mmHg 63%
    07:00 +1°C° 0.2 mm 9 mps 753 mmHg 63%
    08:00 +1°C° 0.2 mm 9 mps 754 mmHg 62%
    09:00 +1°C° 0.2 mm 9 mps 754 mmHg 62%
    10:00 +1°C° 0.1 mm 9 mps 754 mmHg 62%
    11:00 +1°C° 0.1 mm 9 mps 754 mmHg 61%
    12:00 +1°C° 0.1 mm 9 mps 754 mmHg 61%
    13:00 +2°C° 0.3 mm 10 mps 754 mmHg 63%
    14:00 +2°C° 0.3 mm 10 mps 753 mmHg 65%
    15:00 +2°C° 0.3 mm 11 mps 753 mmHg 67%
    16:00 +2°C° 0.3 mm 11 mps 754 mmHg 67%
    17:00 +2°C° 0.3 mm 12 mps 755 mmHg 66%
    18:00 +2°C° 0.3 mm 12 mps 755 mmHg 66%
    19:00 +2°C° 0.1 mm 12 mps 755 mmHg 66%
    20:00 +1°C° 0.1 mm 13 mps 756 mmHg 67%
    21:00 +1°C° 0.1 mm 13 mps 756 mmHg 68%
    22:00 +1°C° 0.2 mm 13 mps 756 mmHg 67%
    23:00 +1°C° 0.2 mm 13 mps 757 mmHg 67%

    26 November, Sunday

    Time Temperature Precipitation Wind Pressure Humidity
    00:00 +1°C° 0.2 mm 14 mps 757 mmHg 67%
    01:00 +1°C° 0.2 mm 14 mps 757 mmHg 66%
    02:00 +1°C° 0.2 mm 14 mps 757 mmHg 65%
    03:00 +1°C° 0.2 mm 14 mps 758 mmHg 64%
    04:00 +1°C° 0.3 mm 14 mps 758 mmHg 65%
    05:00 +1°C° 0.3 mm 14 mps 758 mmHg 65%
    06:00 +1°C° 0.3 mm 14 mps 758 mmHg 65%
    07:00 +1°C° 0.2 mm 13 mps 759 mmHg 65%
    08:00 +1°C° 0.2 mm 13 mps 759 mmHg 65%
    09:00 +2°C° 0.2 mm 12 mps 759 mmHg 65%
    10:00 +2°C° 0.1 mm 11 mps 760 mmHg 65%
    11:00 +3°C° 0.1 mm 11 mps 760 mmHg 64%
    12:00 +3°C° 0.1 mm 10 mps 760 mmHg 64%
    13:00 +3°C° 0 mm 9 mps 760 mmHg 64%
    14:00 +3°C° 0 mm 9 mps 760 mmHg 65%
    15:00 +4°C° 0 mm 8 mps 760 mmHg 65%
    16:00 +4°C° 0.1 mm 7 mps 759 mmHg 67%
    17:00 +4°C° 0.1 mm 6 mps 759 mmHg 68%
    18:00 +5°C° 0.1 mm 5 mps 759 mmHg 69%
    19:00 +4°C° 0.5 mm 6 mps 759 mmHg 75%
    20:00 +4°C° 0.5 mm 7 mps 758 mmHg 80%
    21:00 +3°C° 0.5 mm 9 mps 757 mmHg 85%
    22:00 +5°C° 1.4 mm 10 mps 756 mmHg 87%
    23:00 +4°C° 1.4 mm 12 mps 755 mmHg 88%
    Show more